Kansas City, MO

3:23 AM CDT on August 31, 2016 (GMT -0500)
Kansas City International

Weather History for KMCI - June, 2013

Change the Weather History Date:

Friday, June 28, 2013

  Actual Average Record
Temperature  
Mean Temperature 77 °F 77 °F  
Max Temperature 86 °F 87 °F 107 °F (1936)
Min Temperature 68 °F 67 °F 52 °F (1985)
Degree Days  
Heating Degree Days 0 0  
Month to date heating degree days 17 7  
Since 1 June heating degree days 17 7  
Since 1 July heating degree days 5202 5131  
Cooling Degree Days 12 12  
Month to date cooling degree days 264 243  
Year to date cooling degree days 369 359  
Since 1 June cooling degree days 264 243  
Growing Degree Days 10 (Base 50)    
Moisture  
Dew Point 63 °F    
Average Humidity 69    
Maximum Humidity 97    
Minimum Humidity 40    
Precipitation  
Precipitation 0.00 in 0.17 in 1.27 in (1908)
Month to date precipitation 3.12 4.91  
Year to date precipitation 18.05 18.74  
Snow  
Snow 0.00 in 0.00 in 0.00 in ()
Month to date snowfall 0.0 0.0  
Since 1 June snowfall 0.0 0.0  
Since 1 July snowfall 31.8 18.8  
Snow Depth 0.00 in    
Sea Level Pressure  
Sea Level Pressure 29.90 in    
Wind  
Wind Speed 9 mph (NW)    
Max Wind Speed 20 mph    
Max Gust Speed 25 mph    
Visibility 10 miles    
Events      
T = Trace of Precipitation, MM = Missing Value Source: NWS Daily Summary

Daily Weather History Graph

Daily Weather History Graph

Search for Another Location

Airport or City:

Trip Planner

Search our weather history database for the weather conditions in past years. The results will help you decide how hot, cold, wet, or windy it might be!

Date:

Astronomy

Jun. 28, 2013 Rise Set
Actual Time 5:54 AM CDT 8:49 PM CDT
Civil Twilight 5:22 AM CDT 9:21 PM CDT
Nautical Twilight 4:41 AM CDT 10:02 PM CDT
Astronomical Twilight 3:54 AM CDT 10:49 PM CDT
Moon No Moon Rise 12:01 PM CDT (6/28)
Length of Visible Light 15h 59m
Length of Day
14h 54m
Waning Gibbous, 66% of the Moon is Illuminated
Jun 28
Waning Gibbous
Jun 29
Last Quarter
Jul 8
New
Jul 15
First Quarter
Jul 22
Full

Hourly Weather History & Observations

Time (CDT) Temp. Heat Index Dew Point Humidity Pressure Visibility Wind Dir Wind Speed Gust Speed Precip Events Conditions
12:53 AM 70.0 °F - 68.0 °F 93% 29.93 in 10.0 mi Calm Calm - N/A   Mostly Cloudy
1:53 AM 70.0 °F - 68.0 °F 93% 29.92 in 10.0 mi Calm Calm - N/A   Mostly Cloudy
2:22 AM 69.8 °F - 69.8 °F 100% 29.94 in 1.5 mi Calm Calm - N/A   Partly Cloudy
2:32 AM 69.8 °F - 68.0 °F 94% 29.93 in 10.0 mi Calm Calm - N/A   Scattered Clouds
2:40 AM 69.8 °F - 66.2 °F 88% 29.93 in 10.0 mi NW 4.6 mph - N/A   Scattered Clouds
2:53 AM 69.1 °F - 66.9 °F 93% 29.89 in 10.0 mi WNW 5.8 mph - N/A   Scattered Clouds
3:53 AM 69.1 °F - 66.9 °F 93% 29.90 in 10.0 mi WNW 6.9 mph - N/A   Overcast
4:53 AM 69.1 °F - 66.9 °F 93% 29.90 in 10.0 mi WNW 6.9 mph - N/A   Scattered Clouds
5:53 AM 68.0 °F - 66.0 °F 93% 29.91 in 10.0 mi West 5.8 mph - N/A   Mostly Cloudy
6:07 AM 68.0 °F - 66.2 °F 94% 29.94 in 10.0 mi West 6.9 mph - N/A   Mostly Cloudy
6:53 AM 69.1 °F - 66.9 °F 93% 29.93 in 10.0 mi WNW 6.9 mph - N/A   Mostly Cloudy
7:53 AM 72.0 °F - 68.0 °F 87% 29.92 in 10.0 mi WNW 6.9 mph - N/A   Scattered Clouds
8:53 AM 75.9 °F - 68.0 °F 76% 29.93 in 10.0 mi WNW 6.9 mph - N/A   Scattered Clouds
9:53 AM 75.9 °F - 66.9 °F 74% 29.93 in 10.0 mi NNW 6.9 mph - N/A   Mostly Cloudy
10:53 AM 81.0 °F 82.7 °F 64.9 °F 58% 29.92 in 10.0 mi NNW 10.4 mph - N/A   Scattered Clouds
11:53 AM 82.9 °F 84.0 °F 63.0 °F 51% 29.93 in 10.0 mi NNW 11.5 mph - N/A   Partly Cloudy
12:53 PM 84.0 °F 85.4 °F 64.0 °F 51% 29.92 in 10.0 mi NNW 11.5 mph 19.6 mph N/A   Partly Cloudy
1:53 PM 84.0 °F 84.4 °F 61.0 °F 46% 29.91 in 10.0 mi NNW 13.8 mph - N/A   Partly Cloudy
2:53 PM 84.9 °F 85.0 °F 61.0 °F 44% 29.89 in 10.0 mi NW 11.5 mph 21.9 mph N/A   Partly Cloudy
3:53 PM 84.9 °F 84.2 °F 57.9 °F 40% 29.88 in 10.0 mi NW 17.3 mph 24.2 mph N/A   Partly Cloudy
4:53 PM 84.9 °F 84.4 °F 59.0 °F 41% 29.87 in 10.0 mi NNW 15.0 mph 20.7 mph N/A   Partly Cloudy
5:53 PM 84.0 °F 83.5 °F 57.9 °F 41% 29.87 in 10.0 mi NW 11.5 mph 21.9 mph N/A   Partly Cloudy
6:53 PM 82.9 °F 82.6 °F 57.9 °F 42% 29.85 in 10.0 mi NW 9.2 mph - N/A   Partly Cloudy
7:53 PM 80.1 °F 80.6 °F 57.9 °F 47% 29.86 in 10.0 mi NW 8.1 mph - N/A   Partly Cloudy
8:53 PM 75.0 °F - 57.9 °F 55% 29.85 in 10.0 mi WNW 6.9 mph - N/A   Clear
9:53 PM 73.0 °F - 57.0 °F 57% 29.86 in 10.0 mi WNW 5.8 mph - N/A   Partly Cloudy
10:53 PM 71.1 °F - 57.9 °F 63% 29.86 in 10.0 mi WNW 5.8 mph - N/A   Clear
11:53 PM 71.1 °F - 57.9 °F 63% 29.85 in 10.0 mi NW 8.1 mph - N/A   Clear